Regional Weather Roundup
Issued by NWS

Home | Current Version | Previous Version | Graphics & Text | Print | Product List | Glossary Off
Versions: 1 2 3 4 5 6 7 8 9 10 11 12 13 14 15 16 17 18 19 20 21 22 23 24 25 26 27 28 29 30 31 32 33 34 35 36 37 38 39 40 41 42 43 44 45 46 47 48 49 50

000
ASUS43 KMKX 270100
RWRWI

WISCONSIN REGIONAL WEATHER ROUNDUP
NATIONAL WEATHER SERVICE MILWAUKEE/SULLIVAN WI
700 PM CST FRI DEC 26 2014

NOTE: "FAIR" INDICATES FEW OR NO CLOUDS BELOW 12,000 FEET WITH NO
SIGNIFICANT WEATHER AND/OR OBSTRUCTIONS TO VISIBILITY.

WIZ001-002-006>008-014>016-023>028-270200-
NORTHWEST WISCONSIN

CITY           SKY/WX    TMP DP  RH WIND       PRES   REMARKS
SUPERIOR ARPT  CLOUDY    31  23  74 N9        30.10F WCI  22
ASHLAND        CLOUDY    30  27  88 NW3       30.08S
HAYWARD        CLOUDY    29  25  85 N6        30.06S WCI  23
SIREN          CLOUDY    30  25  84 N6        30.07F WCI  24
CUMBERLAND     CLOUDY    30  27  86 N8        30.03F WCI  23
RICE LAKE      CLOUDY    31  28  88 N10       30.05S WCI  22
CHETEK         CLOUDY    32  28  86 N7        30.04S WCI  25
LADYSMITH      CLOUDY    32  29  90 N8        30.04S WCI  25
EAU CLAIRE     NOT AVBL
MENOMONIE      CLOUDY    33  29  86 N5        30.05R WCI  28
NEW RICHMOND   CLOUDY    31  28  90 N7        30.05R WCI  24
OSCEOLA        CLOUDY    31  29  93 N7        30.09S WCI  24
$$

WIZ003>005-009-010-017-018-270200-
NORTH CENTRAL WISCONSIN

CITY           SKY/WX    TMP DP  RH WIND       PRES   REMARKS
MANITOWISH WTR CLOUDY    29  29 100 N3        30.02R
ARBOR VITAE    MIX PCPN  32  30  94 CALM      30.01S
WOODRUFF       MIX PCPN  32  30  94 CALM      30.01S
RHINELANDER    CLOUDY    29  28  96 NE3       30.01F
EAGLE RIVER    CLOUDY    30  30 100 CALM      30.01S
LAND O LAKES   CLOUDY    31  29  95 NE3       30.02R
PHILLIPS       CLOUDY    29  28  96 N9        30.01S WCI  21
TOMAHAWK       CLOUDY    31  28  91 CALM      30.02S
MEDFORD        CLOUDY    31  29  93 NE9       30.00S WCI  23
MERRILL        CLOUDY    32  32  99 NE3       30.00F FOG
$$

WIZ029-030-035-036-043>047-270200-
CENTRAL WISCONSIN

CITY           SKY/WX    TMP DP  RH WIND       PRES   REMARKS
WAUSAU         CLOUDY    34  32  92 NE3       29.99S
MOSINEE        CLOUDY    34  34 100 NE6       30.01R FOG     WCI  29
MARSHFIELD     CLOUDY    34  31  88 NE7       30.00R WCI  28
STEVENS POINT  CLOUDY    31  31  99 NE3       30.01R FOG
WAUPACA        CLOUDY    34  33  96 N5        30.02R FOG     WCI  30
WAUTOMA        NOT AVBL
WISC RAPIDS    CLOUDY    34  30  85 E6        30.02R WCI  29
CAMP DOUGLAS   NOT AVBL
$$

WIZ011>013-019>022-031-037>040-048>050-270200-
NORTHEAST WISCONSIN

CITY           SKY/WX    TMP DP  RH WIND       PRES   REMARKS
ANTIGO         CLOUDY    32  32 100 NE6       30.00F FOG     WCI  26
SHAWANO        FOG       34  33  96 NE3       30.03F VSB 1/4
OCONTO         CLOUDY    34  34 100 CALM      30.04R
STURGEON BAY   CLOUDY    36  34  93 CALM      30.05S
GREEN BAY      CLOUDY    35  33  92 MISG      30.03S FOG
MANITOWOC      NOT AVBL
APPLETON       CLOUDY    34  34 100 NE8       30.02R FOG     WCI  27
CLINTONVILLE   CLOUDY    32  32 100 NE5       30.02S FOG     WCI  27
OSHKOSH        CLOUDY    35  32  88 N8        30.02R FOG     WCI  29
$$

WIZ032>034-041-042-053>061-270200-
SOUTHWEST WISCONSIN

CITY           SKY/WX    TMP DP  RH WIND       PRES   REMARKS
LA CROSSE      CLOUDY    36  32  85 NW8       30.01R WCI  30
SPARTA         CLOUDY    37  32  83 N5        30.02R WCI  33
VIROQUA        CLOUDY    35  35 100 CALM      29.98R
BOSCOBEL       MOCLDY    35  31  85 CALM      29.99S
PRAIRIE DU CHI PTCLDY    37  32  82 CALM      29.99R
PLATTEVILLE    PTCLDY    37  35  90 CALM      29.99S
$$

WIZ056-057-062-063-064-067-068-270200-
SOUTH CENTRAL WISCONSIN

CITY           SKY/WX    TMP DP  RH WIND       PRES   REMARKS
REEDSBURG      MOCLDY    33  32  94 CALM      29.99R
BARABOO/DELLS  CLOUDY    32  31  94 CALM      29.98R
LONE ROCK      NOT AVBL
MINERAL POINT  MOCLDY    41  34  75 CALM      29.98R
MADISON        MOCLDY    36  32  85 CALM      29.99R
MIDDLETON      MOCLDY    37  35  93 CALM      30.00R
WATERTOWN      MOCLDY    38  36  92 SE6       29.99S WCI  33
MONROE         CLOUDY    43  36  75 CALM      29.98S
JANESVILLE     CLOUDY    43  37  81 CALM      29.99R
$$

WIZ051-052-058>065-066-070>072-270200-
SOUTHEAST WISCONSIN

CITY           SKY/WX    TMP DP  RH WIND       PRES   REMARKS
MILWAUKEE      CLOUDY    41  35  79 CALM      30.02R
WAUKESHA       PTCLDY    37  34  87 CALM      30.02R
MILWAUKEE/TIMM PTCLDY   N/A N/A N/A CALM      30.02R
RACINE         CLOUDY    42  36  79 S3        30.04R
BURLINGTON     CLOUDY    38  35  89 CALM      30.02R
KENOSHA        CLOUDY    46  38  73 SW5       30.02R
FOND DU LAC    MOCLDY    33  30  88 CALM      30.01R
SHEBOYGAN      MOCLDY    31  30  96 CALM      30.02R
WEST BEND      PTCLDY    34  32  93 SE3       30.00S
JUNEAU         PTCLDY    36  33  90 CALM      30.01R
$$

LSZ147-162-270200-
LAKE SUPERIOR

STATION/POSITION TIME  TEMP    WIND        PRES    WAVE
                       AIR SEA DIR/SP/G            HT/PER
                 (UTC) (F)     (DEG/KT/KT) (MB)    (FT/S)
DEVILS ISLAND    0000   33     360/  9/ 10 1019.8R
PORT WING        0000   33     340/  8/  9 1019.0
SAXON HARBOR     0000   33     350/  4/  5 1018.6S
$$

LMZ867-665-643>646-270200-
LAKE MICHIGAN

STATION/POSITION TIME  TEMP    WIND        PRES    WAVE
                       AIR SEA DIR/SP/G            HT/PER
                 (UTC) (F)     (DEG/KT/KT) (MB)    (FT/S)
CHAMBERS ISLAND  0000   35     360/  9/ 11 1017.3R
NORTHPORT PIER   0000   35      10/  2/  3 1017.3R
SISTER BAY       2313             CALM       N/A
ALGOMA LAKESHORE 0015          340/  7/  9   N/A
KEWAUNEE LAKESHO 0000   36     350/  2/  5 1015.8R
SHEBOYGAN LAKESH 0000   40 39  170/  6/  7 1016.8R
PORT WASHINGTON  0040   38     280/  2/  3 1016.9S
MILWAUKEE LAKESH 0000   39     290/  2/  4   N/A
KENOSHA   LAKESH 0000   40     180/ 10/ 11 1016.3R
$$

TC  - TEMPERATURE IN CELSIUS
VSB - VISIBILITY IN STATUTE MILES
WCI - WIND CHILL INDEX
HX  - HEAT INDEX



USA.gov is the U.S. government's official web portal to all federal, state and local government web resources and services.